timestamp,surface_pressure_avg,surface_temp_avg,battery_voltage,lat,long
2019-10-05 00:00:00+00:00,248.0697,9.5,12.89,47.84626,-54.09684
2019-10-05 00:10:00+00:00,252.2064,9.5,12.81,47.84626,-54.09684
2019-10-05 00:20:00+00:00,251.7648,9.5,12.89,47.84626,-54.09684
2019-10-05 00:30:00+00:00,249.3031,9.5,12.97,47.84626,-54.09684
2019-10-05 00:40:00+00:00,250.2381,9.5,12.97,47.84626,-54.09684
2019-10-05 00:50:00+00:00,249.1731,9.5,12.97,47.84626,-54.09684
2019-10-05 01:00:00+00:00,253.6181,9.5,12.89,47.84626,-54.09684
2019-10-05 01:10:00+00:00,263.6481,9.49,12.81,47.84626,-54.09684
2019-10-05 01:20:00+00:00,265.7747,9.5,12.89,47.84626,-54.09684
2019-10-05 01:30:00+00:00,264.9364,9.5,12.89,47.84626,-54.09684
2019-10-05 01:40:00+00:00,274.8747,9.48,12.97,47.84626,-54.09684
2019-10-05 01:50:00+00:00,286.2947,9.46,12.97,47.84626,-54.09684
2019-10-05 02:00:00+00:00,286.0097,9.4,12.89,47.84626,-54.09684
2019-10-05 02:10:00+00:00,286.918,9.4,12.81,47.84626,-54.09684
2019-10-05 02:20:00+00:00,301.2347,9.36,12.89,47.84626,-54.09684
2019-10-05 02:30:00+00:00,308.6463,9.31,12.89,47.84626,-54.09684
2019-10-05 02:40:00+00:00,300.453,9.3,12.89,47.84626,-54.09684
2019-10-05 02:50:00+00:00,295.6146,9.2,12.97,47.84626,-54.09684
2019-10-05 03:00:00+00:00,305.3614,9.2,12.81,47.84626,-54.09684
2019-10-05 03:10:00+00:00,313.9814,9.2,12.81,47.84626,-54.09684
2019-10-05 03:20:00+00:00,311.6746,9.2,12.89,47.84626,-54.09684
2019-10-05 03:30:00+00:00,319.6163,9.25,12.89,47.84626,-54.09684
2019-10-05 03:40:00+00:00,330.6579,9.31,12.89,47.84626,-54.09684
2019-10-05 03:50:00+00:00,330.9996,9.4,12.89,47.84626,-54.09684
2019-10-05 04:00:00+00:00,324.5897,9.4,12.81,47.84626,-54.09684
2019-10-05 04:10:00+00:00,324.1813,9.4,12.73,47.84626,-54.09684
2019-10-05 04:20:00+00:00,328.2562,9.44,12.81,47.84626,-54.09684
2019-10-05 04:30:00+00:00,320.9279,9.45,12.89,47.84626,-54.09684
2019-10-05 04:40:00+00:00,319.343,9.41,12.89,47.84626,-54.09684
2019-10-05 04:50:00+00:00,325.8663,9.42,12.89,47.84626,-54.09684
2019-10-05 05:00:00+00:00,326.9529,9.45,12.81,47.84626,-54.09684
2019-10-05 05:10:00+00:00,319.5847,9.4,12.73,47.84626,-54.09684
2019-10-05 05:20:00+00:00,317.6114,9.4,12.81,47.84626,-54.09684
2019-10-05 05:30:00+00:00,327.0063,9.42,12.81,47.84626,-54.09684
2019-10-05 05:40:00+00:00,329.2928,9.46,12.89,47.84626,-54.09684
2019-10-05 05:50:00+00:00,325.363,9.4,12.89,47.84626,-54.09684
2019-10-05 06:00:00+00:00,320.1896,9.4,12.81,47.84626,-54.09684
2019-10-05 06:10:00+00:00,319.768,9.4,12.73,47.84626,-54.09684
2019-10-05 06:20:00+00:00,317.8263,9.4,12.81,47.84626,-54.09684
2019-10-05 06:30:00+00:00,308.3497,9.4,12.81,47.84626,-54.09684
2019-10-05 06:40:00+00:00,298.0563,9.4,12.81,47.84626,-54.09684
2019-10-05 06:50:00+00:00,293.5997,9.4,12.89,47.84626,-54.09684
2019-10-05 07:00:00+00:00,288.8864,9.4,12.81,47.84626,-54.09684
2019-10-05 07:10:00+00:00,276.6047,9.4,12.73,47.84626,-54.09684
2019-10-05 07:20:00+00:00,268.8031,9.4,12.81,47.84626,-54.09684
2019-10-05 07:30:00+00:00,268.8281,9.4,12.81,47.84626,-54.09684
2019-10-05 07:40:00+00:00,262.0997,9.3,12.81,47.84626,-54.09684
2019-10-05 07:50:00+00:00,245.0164,9.06,12.81,47.84626,-54.09684
2019-10-05 08:00:00+00:00,240.8948,8.9,12.73,47.84626,-54.09684
2019-10-05 08:10:00+00:00,242.2948,9.2,12.73,47.84626,-54.09684
2019-10-05 08:20:00+00:00,232.4698,9.0,12.81,47.84626,-54.09684
2019-10-05 08:30:00+00:00,217.2898,8.7,12.81,47.84626,-54.09684
2019-10-05 08:40:00+00:00,216.8764,8.6,12.81,47.84626,-54.09684
2019-10-05 08:50:00+00:00,220.3331,8.6,12.81,47.84626,-54.09684
2019-10-05 09:00:00+00:00,214.9831,8.66,12.73,47.84626,-54.09684
2019-10-05 09:10:00+00:00,213.4948,8.67,12.73,47.84626,-54.09684
2019-10-05 09:20:00+00:00,217.3414,8.67,12.81,47.84626,-54.09684
2019-10-05 09:30:00+00:00,219.6681,8.69,12.81,47.84626,-54.09684
2019-10-05 09:40:00+00:00,217.5098,8.66,12.81,47.84626,-54.09684
2019-10-05 09:50:00+00:00,219.8314,8.6,12.81,47.84626,-54.09684
2019-10-05 10:00:00+00:00,227.0614,8.63,12.73,47.84626,-54.09684
2019-10-05 10:10:00+00:00,226.9615,8.68,12.73,47.84626,-54.09684
2019-10-05 10:20:00+00:00,226.6881,8.7,12.81,47.84626,-54.09684
2019-10-05 10:30:00+00:00,235.0014,8.7,12.81,47.84626,-54.09684
2019-10-05 10:40:00+00:00,240.0699,8.89,12.89,47.84626,-54.09684
2019-10-05 10:50:00+00:00,240.0365,8.9,12.97,47.84626,-54.09684
2019-10-05 11:00:00+00:00,245.1898,8.9,12.97,47.84626,-54.09684
2019-10-05 11:10:00+00:00,251.0414,9.11,13.05,47.84626,-54.09684
2019-10-05 11:20:00+00:00,250.8765,9.39,14.08,47.84626,-54.09684
2019-10-05 11:30:00+00:00,253.7164,9.3,15.67,47.84626,-54.09684
2019-10-05 11:40:00+00:00,258.7848,9.32,16.39,47.84626,-54.09684
2019-10-05 11:50:00+00:00,255.6781,9.3,16.63,47.84626,-54.09684
2019-10-05 12:00:00+00:00,250.1181,9.0,16.55,47.84626,-54.09684
2019-10-05 12:10:00+00:00,257.7381,9.08,16.79,47.84626,-54.09684
2019-10-05 12:20:00+00:00,265.3731,9.2,16.79,47.84626,-54.09684
2019-10-05 12:30:00+00:00,260.0564,8.93,14.72,47.84626,-54.09684
2019-10-05 12:40:00+00:00,256.368,8.67,14.96,47.84626,-54.09684
2019-10-05 12:50:00+00:00,264.3531,8.84,16.07,47.84626,-54.09684
2019-10-05 13:00:00+00:00,267.9998,8.98,14.48,47.84626,-54.09684
2019-10-05 13:10:00+00:00,263.3481,9.0,14.4,47.84626,-54.09684
2019-10-05 13:20:00+00:00,269.1547,8.99,14.48,47.84626,-54.09684
2019-10-05 13:30:00+00:00,277.5864,8.5,14.48,47.84626,-54.09684
2019-10-05 13:40:00+00:00,277.968,8.9,14.56,47.84626,-54.09684
2019-10-05 13:50:00+00:00,276.0481,8.6,15.6,47.84626,-54.09684
2019-10-05 14:00:00+00:00,293.3547,8.87,15.11,47.84626,-54.09684
2019-10-05 14:10:00+00:00,303.7863,8.8,15.75,47.84626,-54.09684
2019-10-05 14:20:00+00:00,305.7681,8.8,14.56,47.84626,-54.09684
2019-10-05 14:30:00+00:00,309.0264,8.75,14.72,47.84626,-54.09684
2019-10-05 14:40:00+00:00,321.593,8.9,14.72,47.84626,-54.09684
2019-10-05 14:50:00+00:00,320.1213,8.9,15.75,47.84626,-54.09684
2019-10-05 15:00:00+00:00,323.2247,8.88,14.88,47.84626,-54.09684
2019-10-05 15:10:00+00:00,335.2997,8.9,14.72,47.84626,-54.09684
2019-10-05 15:20:00+00:00,338.8513,8.88,14.56,47.84626,-54.09684
2019-10-05 15:30:00+00:00,332.3997,8.83,14.4,47.84626,-54.09684
2019-10-05 15:40:00+00:00,345.3113,8.9,14.72,47.84626,-54.09684
2019-10-05 15:50:00+00:00,357.4763,8.9,14.8,47.84626,-54.09684
2019-10-05 16:00:00+00:00,355.7562,8.9,14.64,47.84626,-54.09684
2019-10-05 16:10:00+00:00,351.4964,8.94,14.48,47.84626,-54.09684
2019-10-05 16:20:00+00:00,359.0696,9.0,15.2,47.84626,-54.09684
2019-10-05 16:30:00+00:00,359.723,9.0,14.96,47.84626,-54.09684
2019-10-05 16:40:00+00:00,357.9062,9.0,14.64,47.84626,-54.09684
2019-10-05 16:50:00+00:00,357.1363,9.0,14.64,47.84626,-54.09684
2019-10-05 17:00:00+00:00,362.5262,9.09,14.56,47.84626,-54.09684
2019-10-05 17:10:00+00:00,359.0314,9.1,14.48,47.84626,-54.09684
2019-10-05 17:20:00+00:00,357.1797,9.1,14.48,47.84626,-54.09684
2019-10-05 17:30:00+00:00,358.2729,9.1,14.48,47.84626,-54.09684
2019-10-05 17:40:00+00:00,357.2297,9.1,14.64,47.84626,-54.09684
2019-10-05 17:50:00+00:00,349.3929,9.1,14.4,47.84626,-54.09684
2019-10-05 18:00:00+00:00,349.3446,9.19,14.32,47.84626,-54.09684
2019-10-05 18:10:00+00:00,347.633,9.2,14.48,47.84626,-54.09684
2019-10-05 18:20:00+00:00,342.513,9.2,14.48,47.84626,-54.09684
2019-10-05 18:30:00+00:00,344.1396,9.2,14.4,47.84626,-54.09684
2019-10-05 18:40:00+00:00,339.1113,9.19,14.4,47.84626,-54.09684
2019-10-05 18:50:00+00:00,330.3846,9.19,14.48,47.84626,-54.09684
2019-10-05 19:00:00+00:00,321.9996,9.2,14.4,47.84626,-54.09684
2019-10-05 19:10:00+00:00,322.528,9.2,14.24,47.84626,-54.09684
2019-10-05 19:20:00+00:00,314.9563,9.2,14.32,47.84626,-54.09684
2019-10-05 19:30:00+00:00,300.1981,9.19,14.24,47.84626,-54.09684
2019-10-05 19:40:00+00:00,299.998,9.2,14.24,47.84626,-54.09684
2019-10-05 19:50:00+00:00,299.5563,9.2,14.16,47.84626,-54.09684
2019-10-05 20:00:00+00:00,289.5264,9.2,14.08,47.84626,-54.09684
2019-10-05 20:10:00+00:00,281.0164,9.3,13.92,47.84626,-54.09684
2019-10-05 20:20:00+00:00,277.2363,9.3,13.92,47.84626,-54.09684
2019-10-05 20:30:00+00:00,271.5964,9.3,13.92,47.84626,-54.09684
2019-10-05 20:40:00+00:00,264.7164,9.28,13.84,47.84626,-54.09684
2019-10-05 20:50:00+00:00,263.8147,9.3,13.84,47.84626,-54.09684
2019-10-05 21:00:00+00:00,257.6247,9.3,13.68,47.84626,-54.09684
2019-10-05 21:10:00+00:00,250.4497,9.3,13.53,47.84626,-54.09684
2019-10-05 21:20:00+00:00,250.0897,9.28,13.53,47.84626,-54.09684
2019-10-05 21:30:00+00:00,249.2647,9.3,13.44,47.84626,-54.09684
2019-10-05 21:40:00+00:00,246.9931,9.3,13.44,47.84626,-54.09684
2019-10-05 21:50:00+00:00,245.2865,9.2,13.37,47.84626,-54.09684
2019-10-05 22:00:00+00:00,249.3898,9.2,13.29,47.84626,-54.09684
2019-10-05 22:10:00+00:00,251.1231,9.29,13.13,47.84626,-54.09684
2019-10-05 22:20:00+00:00,250.1397,9.3,13.13,47.84626,-54.09684
2019-10-05 22:30:00+00:00,250.2513,9.36,13.13,47.84626,-54.09684
2019-10-05 22:40:00+00:00,256.7314,9.38,13.05,47.84626,-54.09684
2019-10-05 22:50:00+00:00,258.7831,9.38,13.05,47.84626,-54.09684
2019-10-05 23:00:00+00:00,254.8582,9.39,12.97,47.84626,-54.09684
2019-10-05 23:10:00+00:00,255.6314,9.38,12.89,47.84626,-54.09684
2019-10-05 23:20:00+00:00,261.7831,9.38,12.97,47.84626,-54.09684
2019-10-05 23:30:00+00:00,263.5397,9.39,12.97,47.84626,-54.09684
2019-10-05 23:40:00+00:00,261.5115,9.39,12.97,47.84626,-54.09684
2019-10-05 23:50:00+00:00,261.5348,9.39,12.97,47.84626,-54.09684
